Location: Asheville, NC
(35.6000°N, 82.5500°W)
Time: 14:21:41
(UTC-04:00)

STARS - Pass Details

Date: 12 January 2018
Orbit: 625 x 641 km, 98.3° (Epoch: 17 July)

Event Time Altitude Azimuth Distance (km) Brightness Sun altitude
Rises 18:39:54 0° 11° (N) 2,930 ? -12.6°
Reaches altitude 10° 18:42:06 10° 10° (N) 2,020 ? -13.0°
Maximum altitude 18:46:30 79° 284° (WNW) 651 ? -13.8°
Drops below altitude 10° 18:50:53 10° 198° (SSW) 2,016 ? -14.7°
Sets 18:53:05 0° 197° (SSW) 2,923 ? -15.1°
